Location: ????????
(56.1167°N, 38.6333°E)
Time: 22:03:26
(UTC+00:00)

Okean 2 Rocket - Pass Details

Date: 18 November 2025
Orbit: 610 x 635 km, 82.5° (Epoch: 06 December)

Event Time Altitude Azimuth Distance (km) Brightness Sun altitude
Rises 15:35:32 0° 178° (S) 2,885 6.5 -19.4°
Reaches altitude 10° 15:37:46 10° 174° (S) 1,980 5.6 -19.7°
Maximum altitude 15:42:04 57° 97° (E) 732 3.0 -20.3°
Enters shadow 15:42:43 51° 60° (ENE) 784 3.2 -20.4°
